Location: Unspecified
(17.6330°N, 0.0000°E)
Time: 11:24:36
(UTC+00:00)

Tiros 1 despin weight - Visible Passes

Search period start: 17 June 2019 00:00
Search period end: 27 June 2019 00:00
Orbit: 595 x 642 km, 48.2° (Epoch: 17 June)

Date Brightness Start Highest point End Pass type
(mag) Time Alt. Az. Time Alt. Az. Time Alt. Az.
23 Jun ? 19:11:21 10° SSE 19:13:35 13° SE 19:15:49 10° E visible
23 Jun ? 20:50:27 10° WSW 20:53:45 40° W 20:53:45 40° W visible
24 Jun ? 19:25:56 10° SSW 19:30:04 34° SE 19:34:09 10° ENE visible
24 Jun ? 21:08:04 10° W 21:11:35 22° NW 21:15:03 10° N visible
25 Jun ? 19:42:02 10° SW 19:46:36 89° NW 19:51:07 10° NE visible
26 Jun ? 04:20:44 10° N 04:24:10 22° NE 04:27:38 10° E visible
26 Jun ? 19:59:04 10° WSW 20:03:14 35° NW 20:07:21 10° NNE visible
